FW9226 Weather Reports


Display with metric or nautical units.
time (UTC)temp
F
wind
direction
speed
MPH
gust
MPH
rain 1hr
in
rain 24hr
in
rain mn
in
humidity
%
barometer
mb
20240224025505 43 91 0.0 1.0 0.00 0.00 0.00 76 1020.1
20240224024506 43 97 0.0 0.0 0.00 0.00 0.00 77 1019.9
20240224023503 44 97 0.0 0.0 0.00 0.00 0.00 76 1019.8
20240224023005 44 97 0.0 0.0 0.00 0.00 0.00 77 1019.6
20240224022502 44 97 0.0 0.0 0.00 0.00 0.00 78 1019.6
20240224022004 44 97 0.0 0.0 0.00 0.00 0.00 77 1019.6
20240224021502 45 97 0.0 0.0 0.00 0.00 0.00 78 1019.6
20240224021004 45 97 0.0 0.0 0.00 0.00 0.00 77 1019.5
20240224020008 46 97 0.0 1.0 0.00 0.00 0.00 77 1019.4
20240224015006 46 97 0.0 1.0 0.00 0.00 0.00 75 1019.4
20240224014504 47 97 0.0 1.0 0.00 0.00 0.00 75 1019.3
20240224014005 47 99 0.0 1.0 0.00 0.00 0.00 75 1019.3
20240224013503 48 99 0.0 1.0 0.00 0.00 0.00 75 1019.2
20240224013005 48 96 0.0 1.0 0.00 0.00 0.00 74 1019.2
20240224012502 49 96 0.0 1.0 0.00 0.00 0.00 72 1019.2
20240224012005 50 96 0.0 1.0 0.00 0.00 0.00 70 1019.0
20240224011006 50 95 0.0 2.0 0.00 0.00 0.00 68 1019.1
20240224010505 51 155 0.0 2.0 0.00 0.00 0.00 67 1019.0
20240224010007 51 189 0.0 1.0 0.00 0.00 0.00 68 1019.0
20240224005005 52 98 0.0 1.0 0.00 0.00 0.00 67 1019.0
20240224004500 52 148 1.0 3.0 0.00 0.00 0.00 67 1019.0
20240224004006 52 131 1.0 5.0 0.00 0.00 0.00 66 1018.9
20240224003502 53 85 1.0 5.0 0.00 0.00 0.00 65 1018.8
20240224003006 53 208 1.0 5.0 0.00 0.00 0.00 64 1018.9
20240224002505 54 249 1.0 5.0 0.00 0.00 0.00 64 1018.8
20240224002005 54 278 0.0 4.0 0.00 0.00 0.00 63 1018.8
20240224001507 55 128 0.0 6.0 0.00 0.00 0.00 62 1018.9
20240224001004 55 273 0.0 6.0 0.00 0.00 0.00 60 1018.9
20240224000503 55 150 1.0 5.0 0.00 0.00 0.00 58 1018.8
20240224000008 56 75 0.0 2.0 0.00 0.00 0.00 56 1018.8
20240223235504 56 105 0.0 4.0 0.00 0.00 0.00 54 1018.6
20240223235005 56 108 0.0 4.0 0.00 0.00 0.00 52 1018.6
20240223234504 57 101 1.0 4.0 0.00 0.00 0.00 50 1018.7
20240223234006 57 59 1.0 4.0 0.00 0.00 0.00 50 1018.9
20240223233501 58 153 1.0 4.0 0.00 0.00 0.00 47 1018.8
20240223233007 58 85 0.0 4.0 0.00 0.00 0.00 48 1018.8
20240223232005 58 121 0.0 1.0 0.00 0.00 0.00 45 1018.9
20240223231502 58 249 0.0 3.0 0.00 0.00 0.00 44 1018.9
20240223231005 58 19 1.0 3.0 0.00 0.00 0.00 43 1018.9
20240223230504 58 55 1.0 4.0 0.00 0.00 0.00 44 1019.1
20240223230004 58 119 1.0 7.0 0.00 0.00 0.00 43 1019.1
20240223225503 58 236 1.0 7.0 0.00 0.00 0.00 44 1019.1
20240223225008 58 74 1.0 5.0 0.00 0.00 0.00 46 1019.2
20240223224504 58 146 1.0 5.0 0.00 0.00 0.00 44 1019.3
20240223224005 58 158 0.0 2.0 0.00 0.00 0.00 41 1019.4
20240223223005 59 216 1.0 3.0 0.00 0.00 0.00 42 1019.6
20240223222503 59 61 1.0 3.0 0.00 0.00 0.00 43 1019.6
20240223222004 59 138 1.0 4.0 0.00 0.00 0.00 41 1019.5
20240223221504 59 259 1.0 4.0 0.00 0.00 0.00 42 1019.6
20240223221002 59 157 1.0 3.0 0.00 0.00 0.00 39 1019.7
20240223220503 60 82 1.0 3.0 0.00 0.00 0.00 40 1019.7
20240223220007 59 222 1.0 3.0 0.00 0.00 0.00 37 1019.7
20240223215506 59 46 1.0 3.0 0.00 0.00 0.00 40 1019.7
20240223214500 60 75 1.0 3.0 0.00 0.00 0.00 36 1019.7
20240223214001 60 64 0.0 2.0 0.00 0.00 0.00 39 1019.8
20240223213509 59 86 0.0 2.0 0.00 0.00 0.00 38 1019.9
20240223213002 59 257 0.0 1.0 0.00 0.00 0.00 36 1020.0
20240223212506 58 18 1.0 3.0 0.00 0.00 0.00 37 1020.1
20240223212010 58 68 1.0 3.0 0.00 0.00 0.00 39 1020.1
20240223211503 59 63 1.0 2.0 0.00 0.00 0.00 40 1020.2
20240223211007 58 162 1.0 4.0 0.00 0.00 0.00 40 1020.3
20240223210505 58 124 0.0 4.0 0.00 0.00 0.00 40 1020.4
20240223210002 58 119 0.0 3.0 0.00 0.00 0.00 39 1020.4
20240223205505 57 77 1.0 3.0 0.00 0.00 0.00 40 1020.3
20240223204507 57 140 0.0 2.0 0.00 0.00 0.00 39 1020.6
20240223204005 57 270 1.0 3.0 0.00 0.00 0.00 41 1020.7
20240223203505 57 137 1.0 3.0 0.00 0.00 0.00 41 1020.7
20240223203010 56 133 1.0 4.0 0.00 0.00 0.00 39 1020.7
20240223202505 58 124 0.0 4.0 0.00 0.00 0.00 38 1020.8
20240223202007 57 103 0.0 3.0 0.00 0.00 0.00 41 1021.0
20240223201503 57 143 0.0 3.0 0.00 0.00 0.00 39 1021.0
20240223200504 57 110 1.0 2.0 0.00 0.00 0.00 39 1021.2
20240223200002 56 340 1.0 4.0 0.00 0.00 0.00 40 1021.3
20240223195505 56 46 1.0 4.0 0.00 0.00 0.00 40 1021.4
20240223194505 56 158 0.0 2.0 0.00 0.00 0.00 42 1021.6
20240223194005 55 103 0.0 2.0 0.00 0.00 0.00 43 1021.5
20240223193506 54 28 0.0 2.0 0.00 0.00 0.00 45 1021.5
20240223192504 53 56 1.0 4.0 0.00 0.00 0.00 47 1021.9
20240223192007 53 51 1.0 2.0 0.00 0.00 0.00 45 1021.9
20240223191505 53 61 1.0 2.0 0.00 0.00 0.00 45 1022.2
20240223191004 54 101 0.0 2.0 0.00 0.00 0.00 41 1022.3
20240223190507 53 107 0.0 2.0 0.00 0.00 0.00 46 1022.3
20240223190009 53 42 1.0 4.0 0.00 0.00 0.00 43 1022.2
20240223185503 52 37 0.0 4.0 0.00 0.00 0.00 43 1022.3
20240223185005 52 83 0.0 2.0 0.00 0.00 0.00 44 1022.2
20240223184505 52 69 0.0 1.0 0.00 0.00 0.00 50 1022.2
20240223184008 51 83 0.0 1.0 0.00 0.00 0.00 48 1022.3
20240223183505 50 89 0.0 1.0 0.00 0.00 0.00 65 1022.3
20240223182506 50 219 0.0 1.0 0.00 0.00 0.00 46 1022.5
20240223182007 50 244 0.0 1.0 0.00 0.00 0.00 60 1022.6
20240223181505 49 295 0.0 0.0 0.00 0.00 0.00 63 1022.5
20240223181006 49 295 0.0 0.0 0.00 0.00 0.00 68 1022.4
20240223180010 47 295 0.0 1.0 0.00 0.00 0.00 60 1022.3
20240223175504 47 295 0.0 1.0 0.00 0.00 0.00 61 1022.2
20240223175007 47 295 0.0 0.0 0.00 0.00 0.00 65 1022.2
20240223174505 46 295 0.0 0.0 0.00 0.00 0.00 67 1022.1
20240223173506 46 295 0.0 0.0 0.00 0.00 0.00 68 1022.2
20240223173006 45 295 0.0 0.0 0.00 0.00 0.00 58 1022.3
20240223172506 45 295 0.0 0.0 0.00 0.00 0.00 59 1022.3
20240223172004 45 295 0.0 0.0 0.00 0.00 0.00 59 1022.2
20240223171505 44 295 0.0 1.0 0.00 0.00 0.00 57 1022.1
20240223171007 44 295 0.0 1.0 0.00 0.00 0.00 59 1022.0
20240223170505 44 295 0.0 0.0 0.00 0.00 0.00 58 1022.1
20240223170010 43 295 0.0 0.0 0.00 0.00 0.00 54 1022.0
20240223165502 43 295 0.0 0.0 0.00 0.00 0.00 53 1022.1
20240223165003 43 295 0.0 0.0 0.00 0.00 0.00 56 1022.0
20240223164504 42 295 0.0 1.0 0.00 0.00 0.00 51 1022.0
20240223164008 42 295 0.0 1.0 0.00 0.00 0.00 55 1021.9
20240223163505 41 294 0.0 1.0 0.00 0.00 0.00 55 1021.9
20240223163005 41 294 0.0 0.0 0.00 0.00 0.00 55 1021.8
20240223162504 41 294 0.0 0.0 0.00 0.00 0.00 51 1021.7
20240223162008 41 294 0.0 1.0 0.00 0.00 0.00 52 1021.7
20240223161506 40 294 0.0 1.0 0.00 0.00 0.00 54 1021.6
20240223161008 40 297 0.0 2.0 0.00 0.00 0.00 56 1021.5
20240223160503 40 297 0.0 2.0 0.00 0.00 0.00 53 1021.6
20240223155504 40 272 0.0 1.0 0.00 0.00 0.00 55 1021.6
20240223155006 40 272 0.0 0.0 0.00 0.00 0.00 51 1021.6
20240223154500 40 271 0.0 0.0 0.00 0.00 0.00 54 1021.6
20240223154006 39 271 0.0 1.0 0.00 0.00 0.00 53 1021.7
20240223153504 39 271 0.0 1.0 0.00 0.00 0.00 56 1021.7
20240223153007 39 271 0.0 1.0 0.00 0.00 0.00 53 1021.6
20240223152505 39 271 0.0 1.0 0.00 0.00 0.00 55 1021.6
20240223152004 39 272 0.0 1.0 0.00 0.00 0.00 55 1021.6
20240223151503 38 268 0.0 1.0 0.00 0.00 0.00 53 1021.5
20240223151006 38 268 0.0 1.0 0.00 0.00 0.00 51 1021.6
20240223150503 38 268 0.0 1.0 0.00 0.00 0.00 54 1021.5
20240223145004 38 268 0.0 0.0 0.00 0.00 0.00 57 1021.4
20240223144505 38 268 0.0 1.0 0.00 0.00 0.00 55 1021.5
20240223144005 38 268 0.0 1.0 0.00 0.00 0.00 54 1021.5
20240223143001 38 269 0.0 1.0 0.00 0.00 0.00 59 1021.4
20240223142504 38 268 0.0 1.0 0.00 0.00 0.00 60 1021.4
20240223141507 39 264 0.0 1.0 0.00 0.00 0.00 55 1021.5
20240223140504 39 328 0.0 2.0 0.00 0.00 0.00 53 1021.5
20240223140010 39 291 0.0 2.0 0.00 0.00 0.00 53 1021.5
20240223135505 39 268 0.0 1.0 0.00 0.00 0.00 53 1021.5
20240223135004 38 265 0.0 2.0 0.00 0.00 0.00 57 1021.5
20240223134500 39 265 0.0 2.0 0.00 0.00 0.00 58 1021.6
20240223134006 39 265 0.0 1.0 0.00 0.00 0.00 56 1021.6
20240223133504 39 272 0.0 1.0 0.00 0.00 0.00 56 1021.6
20240223133007 39 272 0.0 1.0 0.00 0.00 0.00 55 1021.6
20240223132503 39 273 0.0 1.0 0.00 0.00 0.00 57 1021.6
20240223132003 39 238 0.0 2.0 0.00 0.00 0.00 56 1021.6
20240223131503 39 271 0.0 2.0 0.00 0.00 0.00 57 1021.6
20240223131004 39 319 0.0 1.0 0.00 0.00 0.00 58 1021.6
20240223130501 39 319 0.0 1.0 0.00 0.00 0.00 60 1021.6
20240223130007 39 72 0.0 1.0 0.00 0.00 0.00 58 1021.8
20240223125504 38 72 0.0 1.0 0.00 0.00 0.00 59 1021.7
20240223125007 39 275 0.0 2.0 0.00 0.00 0.00 60 1021.7
20240223124504 39 275 0.0 2.0 0.00 0.00 0.00 59 1021.7
20240223124004 39 290 0.0 1.0 0.00 0.00 0.00 62 1021.7
20240223123503 39 290 0.0 1.0 0.00 0.00 0.00 62 1021.8
20240223123005 39 290 0.0 1.0 0.00 0.00 0.00 61 1021.9
20240223122505 39 271 0.0 1.0 0.00 0.00 0.00 62 1021.8
20240223121505 40 269 0.0 1.0 0.00 0.00 0.00 60 1021.9
20240223121006 39 275 0.0 1.0 0.00 0.00 0.00 59 1021.9
20240223120501 40 271 0.0 1.0 0.00 0.00 0.00 60 1021.9
20240223120007 40 309 0.0 1.0 0.00 0.00 0.00 59 1021.9
20240223115504 40 318 0.0 1.0 0.00 0.00 0.00 60 1021.9
20240223115004 39 318 0.0 1.0 0.00 0.00 0.00 59 1022.0
20240223114503 39 295 0.0 1.0 0.00 0.00 0.00 61 1022.2
20240223114001 39 295 0.0 1.0 0.00 0.00 0.00 63 1022.2
20240223113505 39 295 0.0 1.0 0.00 0.00 0.00 62 1022.3
20240223113004 39 316 0.0 2.0 0.00 0.00 0.00 62 1022.4
20240223112502 39 280 0.0 1.0 0.00 0.00 0.00 63 1022.4
20240223112005 39 280 0.0 1.0 0.00 0.00 0.00 63 1022.6
20240223111501 38 280 0.0 1.0 0.00 0.00 0.00 64 1022.7
20240223111001 38 280 0.0 1.0 0.00 0.00 0.00 66 1022.7
20240223110503 38 280 0.0 1.0 0.00 0.00 0.00 65 1022.8
20240223110006 38 278 0.0 1.0 0.00 0.00 0.00 66 1022.9
20240223105503 38 278 0.0 1.0 0.00 0.00 0.00 67 1023.0
20240223105003 38 278 0.0 1.0 0.00 0.00 0.00 70 1023.1
20240223104502 38 278 0.0 1.0 0.00 0.00 0.00 69 1023.2
20240223104003 38 278 0.0 1.0 0.00 0.00 0.00 68 1023.2
20240223103503 38 277 0.0 1.0 0.00 0.00 0.00 69 1023.2
20240223102502 38 277 0.0 1.0 0.00 0.00 0.00 70 1023.3
20240223102007 38 276 0.0 1.0 0.00 0.00 0.00 71 1023.4
20240223101507 38 281 0.0 1.0 0.00 0.00 0.00 69 1023.5
20240223101005 38 281 0.0 1.0 0.00 0.00 0.00 70 1023.5
20240223100001 39 280 0.0 2.0 0.00 0.00 0.00 71 1023.5
20240223095003 38 266 0.0 2.0 0.00 0.00 0.00 71 1023.6
20240223094459 38 276 0.0 1.0 0.00 0.00 0.00 71 1023.8
20240223094003 38 276 0.0 1.0 0.00 0.00 0.00 72 1023.8
20240223093504 38 276 0.0 1.0 0.00 0.00 0.00 74 1023.8
20240223092502 38 277 0.0 1.0 0.00 0.00 0.00 74 1023.8
20240223091504 38 284 0.0 1.0 0.00 0.00 0.00 73 1023.9
20240223091002 38 284 0.0 2.0 0.00 0.00 0.00 74 1023.9
20240223090502 38 284 0.0 2.0 0.00 0.00 0.00 74 1023.9
20240223090001 38 273 0.0 0.0 0.00 0.00 0.00 73 1024.0
20240223085459 38 273 0.0 0.0 0.00 0.00 0.00 74 1024.1
20240223085006 38 273 0.0 0.0 0.00 0.00 0.00 73 1024.0
20240223084003 38 273 0.0 0.0 0.00 0.00 0.00 74 1024.1
20240223083502 38 273 0.0 0.0 0.00 0.00 0.00 75 1024.1
20240223083001 38 273 0.0 1.0 0.00 0.00 0.00 75 1024.1
20240223082502 38 273 0.0 0.0 0.00 0.00 0.00 74 1024.2
20240223082002 38 273 0.0 0.0 0.00 0.00 0.00 75 1024.2
20240223081502 38 273 0.0 1.0 0.00 0.00 0.00 74 1024.2
20240223081001 38 273 0.0 1.0 0.00 0.00 0.00 75 1024.2
20240223080501 39 272 0.0 1.0 0.00 0.00 0.00 75 1024.2
20240223075504 38 273 0.0 1.0 0.00 0.00 0.00 77 1024.1
20240223075001 39 273 0.0 1.0 0.00 0.00 0.00 76 1024.1
20240223073502 39 274 0.0 1.0 0.00 0.00 0.00 75 1024.1
20240223073005 39 274 0.0 1.0 0.00 0.00 0.00 74 1024.1
20240223072500 39 274 0.0 1.0 0.00 0.00 0.00 75 1024.1
20240223072002 39 274 0.0 1.0 0.00 0.00 0.00 75 1024.3
20240223071459 39 274 0.0 1.0 0.00 0.00 0.00 75 1024.3
20240223071003 39 274 0.0 1.0 0.00 0.00 0.00 76 1024.3
20240223070501 39 274 0.0 1.0 0.00 0.00 0.00 75 1024.4
20240223070003 39 274 0.0 1.0 0.00 0.00 0.00 77 1024.2
20240223065502 39 274 0.0 1.0 0.00 0.00 0.00 77 1024.2
20240223064501 39 274 0.0 0.0 0.00 0.00 0.00 78 1024.2
20240223064003 39 274 0.0 0.0 0.00 0.00 0.00 78 1024.2
20240223063506 39 274 0.0 0.0 0.00 0.00 0.00 77 1024.1
20240223063008 40 274 0.0 0.0 0.00 0.00 0.00 76 1024.1
20240223062505 40 274 0.0 1.0 0.00 0.00 0.00 77 1024.0
20240223062003 40 274 0.0 1.0 0.00 0.00 0.00 77 1023.9
20240223061502 40 274 0.0 1.0 0.00 0.00 0.00 77 1023.9
20240223060504 39 274 0.0 1.0 0.00 0.00 0.00 78 1023.9
20240223060006 40 274 0.0 1.0 0.00 0.00 0.00 77 1023.9
20240223055505 40 274 0.0 1.0 0.00 0.00 0.00 78 1023.7
20240223055007 40 274 0.0 1.0 0.00 0.00 0.00 78 1023.8
20240223054507 40 274 0.0 1.0 0.00 0.00 0.00 78 1023.7
20240223053506 40 274 0.0 1.0 0.00 0.00 0.00 79 1023.7
20240223053003 40 274 0.0 1.0 0.00 0.00 0.00 78 1023.7
20240223052504 40 274 0.0 1.0 0.00 0.00 0.00 78 1023.8
20240223052003 40 274 0.0 1.0 0.00 0.00 0.00 79 1023.8
20240223051505 40 299 0.0 1.0 0.00 0.00 0.00 79 1023.6
20240223051003 40 299 0.0 1.0 0.00 0.00 0.00 79 1023.6
20240223050506 40 299 0.0 1.0 0.00 0.00 0.00 79 1023.6
20240223050008 41 299 0.0 1.0 0.00 0.00 0.00 79 1023.7
20240223044506 41 299 0.0 1.0 0.00 0.00 0.00 79 1023.5
20240223044007 41 299 0.0 1.0 0.00 0.00 0.00 80 1023.5
20240223043504 40 299 0.0 1.0 0.00 0.00 0.00 81 1023.5
20240223043007 39 299 0.0 1.0 0.00 0.00 0.00 83 1023.3
20240223042506 38 302 0.0 0.0 0.00 0.00 0.00 84 1023.3
20240223042006 38 302 0.0 1.0 0.00 0.00 0.00 85 1023.2
20240223041507 38 302 0.0 1.0 0.00 0.00 0.00 85 1023.2
20240223041005 37 302 0.0 1.0 0.00 0.00 0.00 85 1023.0
20240223040004 38 311 0.0 1.0 0.00 0.00 0.00 84 1023.0
20240223035506 38 269 0.0 1.0 0.00 0.00 0.00 84 1022.9
20240223034506 38 246 0.0 0.0 0.00 0.00 0.00 86 1022.9
20240223034006 37 246 0.0 1.0 0.00 0.00 0.00 86 1022.9
20240223033505 37 245 0.0 1.0 0.00 0.00 0.00 87 1022.9
20240223033006 37 245 0.0 0.0 0.00 0.00 0.00 87 1023.0
20240223032502 38 245 0.0 0.0 0.00 0.00 0.00 87 1023.0
20240223031505 38 245 0.0 0.0 0.00 0.00 0.00 86 1023.1
20240223031006 38 245 0.0 0.0 0.00 0.00 0.00 86 1023.1
20240223030506 38 245 0.0 0.0 0.00 0.00 0.00 86 1023.2
20240223030007 38 245 0.0 0.0 0.00 0.00 0.00 85 1023.3